EW6651 Weather Reports


time (UTC)temp
C
wind
direction
speed
KPH
gust
KPH
rain 1hr
cm
rain 24hr
cm
rain mn
cm
humidity
%
barometer
mb
20260504201542 20 311 3.2 16.1 0.00 0.00 0.00 36 1006.1
20260504200043 21 293 4.8 12.9 0.00 0.00 0.00 34 1006.3
20260504194540 21 314 3.2 14.5 0.00 0.00 0.00 38 1006.3
20260504193039 21 241 3.2 12.9 0.00 0.00 0.00 38 1006.4
20260504191539 21 264 4.8 16.1 0.00 0.00 0.00 34 1006.5
20260504190040 21 352 3.2 25.7 0.00 0.00 0.00 33 1006.6
20260504184535 21 199 6.4 22.5 0.00 0.00 0.00 36 1006.5
20260504183032 21 278 6.4 14.5 0.00 0.00 0.00 35 1006.7
20260504181538 20 224 3.2 12.9 0.00 0.00 0.00 36 1006.7
20260504180028 20 323 1.6 11.3 0.00 0.00 0.00 36 1006.8
20260504174526 20 257 1.6 12.9 0.00 0.00 0.00 35 1006.9
20260504173025 20 248 4.8 20.9 0.00 0.00 0.00 34 1007.0
20260504171522 19 284 9.7 24.1 0.00 0.00 0.00 35 1007.0
20260504081600 6 301 0.0 1.6 0.00 0.08 0.00 68 1009.9
20260504044544 3 300 0.0 3.2 0.00 0.08 0.00 66 1010.2
20260504043035 3 286 0.0 1.6 0.00 0.08 0.00 66 1010.1
20260504041533 3 292 0.0 0.0 0.00 0.08 0.00 67 1010.0
20260504040042 3 282 0.0 0.0 0.00 0.08 0.00 67 1010.0
20260504034530 3 282 0.0 1.6 0.00 0.08 0.08 68 1010.0
20260504033029 2 297 0.0 0.0 0.00 0.08 0.08 68 1009.9
20260504031530 2 297 0.0 0.0 0.00 0.08 0.08 68 1009.7
20260504030028 2 297 0.0 0.0 0.00 0.08 0.08 71 1009.8
20260504024527 2 297 0.0 0.0 0.00 0.08 0.08 71 1009.8
20260504023027 2 297 0.0 0.0 0.00 0.08 0.08 71 1009.7
20260504021527 2 297 0.0 0.0 0.00 0.08 0.08 70 1009.8
20260504020027 2 297 0.0 0.0 0.00 0.08 0.08 70 1009.7
20260504014525 2 297 0.0 0.0 0.00 0.08 0.08 71 1009.6
20260504013030 3 297 0.0 0.0 0.00 0.08 0.08 69 1009.5
20260504011526 3 297 0.0 0.0 0.00 0.08 0.08 68 1009.3
20260504010024 3 297 0.0 0.0 0.00 0.08 0.08 66 1009.1
20260504004523 4 297 0.0 0.0 0.00 0.08 0.08 64 1008.9
20260504003025 5 297 0.0 0.0 0.00 0.08 0.08 63 1008.8
20260504001522 6 297 0.0 0.0 0.00 0.08 0.08 59 1008.7
20260504000022 7 297 0.0 1.6 0.00 0.08 0.08 56 1008.5
20260503234521 7 297 0.0 6.4 0.00 0.13 0.08 53 1008.4
20260503233021 8 313 0.0 4.8 0.00 0.13 0.08 52 1008.2
20260503231522 8 305 3.2 8.0 0.00 0.13 0.08 52 1008.1
20260503230020 8 323 0.0 6.4 0.00 0.13 0.08 52 1008.0
20260503224519 8 328 1.6 6.4 0.00 0.20 0.08 50 1007.9
20260503223019 8 285 0.0 8.0 0.00 0.20 0.08 51 1007.7
20260503221518 8 326 1.6 9.7 0.00 0.20 0.08 48 1007.6
20260503220018 9 61 4.8 9.7 0.00 0.20 0.08 47 1007.5
20260503214517 8 309 4.8 9.7 0.00 0.33 0.08 48 1007.4
20260503213017 8 302 4.8 12.9 0.00 0.33 0.08 46 1007.2
20260503211518 9 318 4.8 16.1 0.00 0.33 0.08 46 1007.1
20260503210017 9 334 4.8 12.9 0.00 0.33 0.08 45 1006.9
20260503204514 10 290 4.8 12.9 0.00 0.33 0.08 44 1006.8
20260503203014 9 330 6.4 14.5 0.00 0.33 0.08 48 1006.7